Theta_e
332 334 346 345 346 340 332 334 331 330 326 322 321 334 342 342 343 342 342 342 342 342 342 342 342 342 342 342 341 341 342 342 342 342 340 339 338 336 334 332 335 336 334 333 331 330 330 334 339 341 341 336 330 328 328 328 326 322 325 332 334 335 335 334 334 338 340 339 340 340 336 335 335 334 333 330 329 329 329 329 330 336 337 334 332
335 337 346 345 346 340 334 334 331 333 329 321 321 335 342 342 343 342 343 342 342 341 342 342 342 342 342 342 341 342 342 342 342 341 340 339 338 335 332 332 335 335 333 333 332 331 328 327 330 336 339 335 330 330 331 331 330 325 324 329 333 335 335 334 335 338 340 340 340 338 335 333 334 334 333 328 326 324 324 324 326 335 337 333 332
335 341 346 344 346 340 336 335 332 336 333 324 326 338 342 341 342 342 342 342 342 341 342 342 342 343 342 343 342 342 342 342 342 342 340 339 338 336 335 335 335 332 329 329 330 328 325 324 324 329 333 335 333 331 331 332 332 328 326 328 330 332 333 334 335 338 339 339 339 337 334 333 333 332 330 327 326 324 322 320 321 330 333 332 332
338 344 345 344 345 340 336 335 333 337 337 332 333 340 341 342 343 342 343 342 342 341 342 342 342 342 342 342 342 342 342 342 341 341 340 339 338 336 335 334 335 334 329 328 330 328 325 323 322 323 326 333 333 330 331 332 332 330 328 328 327 327 329 331 333 335 336 338 338 337 336 336 335 330 329 329 326 324 322 320 320 324 328 329 330
341 343 344 345 344 340 336 335 334 337 340 338 337 340 341 342 343 342 343 342 342 342 342 341 342 342 342 342 341 342 341 341 340 340 340 339 337 335 336 337 337 336 331 331 332 332 331 327 323 321 321 327 329 329 330 329 330 329 330 329 328 327 326 326 326 327 329 333 334 334 333 335 336 331 332 333 328 324 321 321 322 321 322 323 325
343 342 344 345 344 342 337 336 334 335 339 340 339 340 341 342 342 342 342 342 342 342 342 342 342 342 342 342 341 341 341 341 340 340 339 338 336 335 336 337 337 335 334 334 333 332 332 331 327 324 319 322 329 330 328 327 328 329 330 330 329 328 327 326 325 324 321 322 325 328 330 332 334 333 334 333 330 326 321 321 322 319 317 316 320
342 342 345 344 345 342 337 336 335 337 338 339 340 340 342 342 342 342 342 342 342 342 342 342 342 342 342 341 340 341 340 340 340 339 339 338 336 336 336 335 336 334 335 335 334 333 332 332 330 330 325 323 329 327 325 327 329 330 331 330 330 329 329 327 327 324 319 319 321 325 330 331 333 335 334 333 330 325 323 326 322 316 315 313 318
342 343 344 344 344 342 338 337 337 338 339 339 339 340 342 342 342 342 342 342 341 342 342 342 342 341 341 340 340 339 339 339 338 338 340 339 336 336 337 337 335 331 332 333 333 334 335 334 333 334 331 326 325 325 327 330 331 331 331 331 331 330 330 328 326 324 322 324 324 327 331 332 333 334 332 331 330 324 325 326 320 314 316 314 316
342 342 343 344 344 342 338 338 338 339 340 339 339 341 342 341 342 342 342 341 341 342 342 342 341 341 340 341 340 339 338 338 337 337 339 338 336 336 337 336 333 329 330 332 333 335 336 336 335 334 330 325 325 328 330 331 331 331 332 332 331 331 330 330 327 327 329 328 326 328 331 332 333 332 328 326 327 326 325 326 324 321 319 317 317
341 342 343 343 344 342 339 339 338 339 340 339 339 341 341 342 342 342 342 341 341 341 342 341 341 341 340 341 340 339 338 338 337 337 337 336 334 333 333 333 333 332 332 332 332 334 335 335 334 332 327 326 328 330 331 331 332 332 332 332 331 331 331 330 327 329 332 331 327 327 328 329 333 333 327 325 328 328 328 328 330 327 323 320 318
341 341 342 343 343 341 339 339 338 338 339 339 340 341 342 342 342 342 342 342 341 341 341 341 341 340 340 340 339 339 339 338 338 337 336 335 333 332 331 331 332 331 332 333 333 334 334 333 330 328 327 328 329 330 331 331 332 333 332 331 331 331 332 331 329 331 331 331 328 328 329 329 334 334 328 329 329 328 329 329 331 329 326 322 320
340 341 341 343 343 341 340 339 338 338 338 338 340 341 342 342 342 342 341 342 341 341 341 341 341 340 340 339 339 340 339 338 337 337 336 335 334 333 331 329 328 328 330 331 331 330 329 328 326 326 327 328 329 330 330 332 333 333 333 332 332 331 332 332 332 331 329 330 328 328 331 332 334 332 328 330 329 329 329 329 330 328 325 322 320
340 340 341 343 342 341 340 339 339 339 338 338 340 341 342 342 342 342 341 341 341 341 341 341 341 340 340 339 339 339 339 338 337 337 336 334 334 334 330 325 326 327 328 328 325 324 323 324 325 325 327 328 329 330 330 332 333 334 334 333 333 332 332 333 333 332 329 330 330 329 329 331 333 328 326 329 327 327 328 326 326 325 323 321 319
339 339 341 343 342 341 339 339 339 338 338 338 341 342 342 342 341 341 341 341 340 341 341 341 340 340 340 339 339 337 338 337 336 336 335 334 334 332 327 325 326 327 328 327 324 321 321 323 323 324 326 328 328 329 330 330 333 334 334 333 334 333 333 333 333 334 332 330 331 331 329 329 330 328 327 328 326 325 325 325 324 323 322 321 320
339 339 341 343 342 341 339 339 339 338 336 338 341 342 342 342 341 341 341 340 340 340 340 340 339 339 338 338 336 335 336 336 335 334 333 334 333 329 324 325 326 327 328 327 325 322 321 322 323 324 326 327 328 329 329 329 332 333 331 330 332 333 333 333 333 334 334 333 332 332 331 330 329 327 328 328 327 326 325 325 324 323 323 322 322
338 340 341 342 342 341 340 339 339 338 336 338 341 342 342 341 341 341 340 340 339 340 340 339 337 335 334 333 330 329 331 332 331 330 331 332 331 326 323 325 326 327 328 328 327 323 322 322 323 325 326 327 327 328 329 327 330 333 331 327 329 330 331 333 334 334 334 335 334 333 333 331 329 328 329 330 328 327 326 326 325 325 324 324 323
338 340 342 341 341 342 341 340 339 338 337 338 341 342 342 341 341 340 340 339 339 339 338 336 333 330 329 326 322 320 320 321 320 321 324 327 325 320 321 324 325 326 328 328 328 325 324 323 324 325 326 327 327 327 328 326 329 332 333 328 327 329 331 332 333 335 335 335 334 334 334 333 331 329 329 330 330 328 327 326 326 326 325 325 324
339 340 341 341 341 342 341 340 340 338 337 338 340 342 341 341 341 339 339 338 338 337 334 332 331 330 328 323 318 316 314 313 313 312 313 316 315 313 320 324 324 326 327 328 328 327 326 324 325 326 326 327 326 327 327 327 328 331 333 329 328 332 333 333 334 335 334 334 335 335 334 334 333 330 329 330 330 329 328 327 327 327 327 326 326
339 340 340 340 341 342 341 340 340 339 338 338 340 341 341 340 340 339 338 338 337 334 333 333 332 330 325 320 317 314 313 311 310 310 309 310 309 311 318 323 324 326 327 327 327 327 327 326 326 326 326 326 326 326 325 325 327 330 331 328 329 334 334 334 335 335 335 335 335 336 335 334 333 332 330 329 330 330 329 328 328 328 327 327 326
339 339 340 340 341 341 341 340 340 339 339 340 341 342 341 340 340 339 338 337 335 333 334 333 330 327 323 319 316 319 319 314 312 311 310 309 308 309 315 321 324 325 326 327 327 326 326 326 325 324 324 324 324 324 323 322 324 327 329 327 329 333 333 333 334 334 335 335 335 336 335 334 334 333 332 330 330 330 330 329 329 328 327 327 327
339 339 340 340 340 341 340 340 340 339 340 341 342 342 341 341 341 340 338 336 334 334 334 331 330 328 325 320 319 324 325 321 319 315 312 310 308 308 311 318 323 325 325 326 325 325 324 323 322 323 323 324 323 323 323 322 324 326 326 327 329 332 333 332 332 332 333 334 334 335 334 334 334 334 334 332 330 331 332 330 329 329 328 328 328
338 339 339 340 340 340 340 340 340 338 340 340 341 342 342 342 341 340 339 338 336 335 333 331 332 331 329 326 325 327 328 328 326 321 319 317 311 308 309 316 322 324 324 325 324 323 323 323 325 327 328 328 328 327 327 327 328 328 328 328 331 333 333 332 331 331 332 332 333 333 333 333 334 334 334 333 331 331 332 332 330 329 329 328 328
338 338 339 339 340 340 339 340 339 339 340 340 341 342 342 342 341 341 339 339 338 335 333 334 335 333 332 331 331 332 333 334 332 327 325 323 318 312 309 313 321 324 324 324 323 323 326 329 331 332 332 332 331 331 331 332 332 331 331 331 333 334 334 334 332 331 331 332 332 332 332 332 333 333 334 334 333 331 331 332 332 332 331 329 328
337 338 338 339 340 340 339 340 339 339 340 340 341 342 343 342 341 341 339 339 338 333 333 336 336 335 335 335 335 335 335 336 336 334 332 329 326 319 313 312 317 322 323 323 324 327 331 333 333 333 333 333 333 334 334 334 334 333 333 332 333 333 333 334 334 333 332 332 332 332 332 332 333 333 333 333 333 332 331 333 336 335 334 331 329
337 337 338 339 339 339 339 339 338 339 340 341 342 342 343 341 341 341 340 340 337 333 335 337 337 337 337 337 336 335 335 336 337 337 337 335 333 329 322 316 315 320 324 327 330 332 334 334 335 335 334 335 335 335 335 336 336 335 335 334 334 334 334 335 334 334 334 333 333 333 333 332 333 333 333 333 333 333 331 333 336 335 335 334 332
336 337 338 339 338 338 339 338 338 339 340 341 341 342 342 341 341 341 340 340 336 334 337 338 337 338 338 337 336 335 336 337 337 337 338 338 337 335 331 326 324 327 331 334 335 335 336 336 336 336 336 336 337 337 336 337 337 337 337 336 335 336 336 336 335 335 335 334 334 334 334 333 333 333 333 333 333 333 332 334 336 335 336 335 335
335 336 337 338 338 338 338 337 337 338 340 341 341 342 342 341 341 340 340 340 336 334 337 337 337 338 338 337 335 335 336 336 335 335 336 337 338 337 336 333 333 333 335 336 337 337 336 336 336 337 337 338 339 338 338 337 337 337 337 337 336 337 337 337 337 336 336 335 335 335 335 335 334 333 333 332 333 333 332 335 336 335 336 335 335
335 335 335 337 338 338 338 337 337 338 339 340 340 341 341 341 340 340 340 340 336 334 336 337 337 337 337 336 335 335 336 336 335 336 336 337 337 337 337 336 336 336 336 338 338 337 337 337 337 338 339 339 339 338 338 337 337 336 336 337 337 337 337 337 337 336 336 336 336 336 336 336 335 335 334 333 333 333 333 336 336 334 335 336 336
335 334 335 336 338 337 337 337 337 338 339 340 340 341 340 340 340 339 340 339 337 335 336 337 337 337 336 334 333 334 336 337 337 337 337 337 337 338 337 337 338 338 338 338 338 338 338 338 338 339 339 338 338 337 337 337 336 336 336 336 337 336 336 336 336 336 336 336 336 336 336 336 336 336 335 334 334 335 336 336 336 335 335 336 335
335 334 335 336 336 336 336 337 337 338 338 340 340 340 340 339 339 339 339 339 339 336 336 336 337 337 335 333 332 333 336 337 337 337 337 337 337 338 338 338 338 339 339 338 339 339 338 338 338 339 338 338 338 336 336 336 336 335 335 335 336 335 335 335 335 335 335 335 336 335 335 335 335 336 335 335 335 336 337 337 336 335 334 334 334
335 334 335 335 335 335 336 336 337 337 338 340 340 340 340 339 339 339 339 339 338 336 336 337 337 336 335 333 333 335 336 337 337 337 338 338 337 337 338 339 339 338 338 339 339 338 338 338 337 337 337 337 336 335 334 335 336 335 335 335 335 335 334 334 333 334 334 335 335 335 334 334 335 335 336 335 336 336 337 336 336 335 335 334 334
335 334 334 335 336 336 336 336 336 337 338 339 340 340 340 339 339 339 339 339 337 336 337 338 337 337 336 333 333 335 336 336 337 337 337 337 337 338 338 338 338 338 339 339 338 337 337 337 336 336 336 335 336 335 333 335 336 336 335 335 334 334 334 333 333 333 333 333 334 334 334 335 335 335 336 336 336 336 336 335 335 335 335 335 335
335 335 334 335 336 337 336 336 336 337 338 339 340 340 340 339 339 339 339 337 336 337 337 338 337 336 335 333 333 335 336 337 337 338 338 338 338 338 338 338 338 338 339 338 337 337 337 336 336 336 336 335 335 333 333 335 336 336 335 334 333 333 333 333 333 332 333 334 334 334 335 335 335 335 335 335 335 335 335 335 334 334 334 334 335
336 335 334 334 335 336 336 336 336 336 337 339 339 339 340 340 340 339 338 336 336 337 338 338 338 335 334 334 335 336 337 337 338 338 338 339 339 339 339 338 338 339 338 337 337 337 336 336 336 336 335 334 334 333 334 335 335 335 334 332 333 332 332 333 333 333 333 333 332 331 331 331 331 331 331 331 332 332 332 332 332 332 332 333 333
336 336 335 334 334 335 336 336 336 338 338 338 338 339 340 340 340 338 337 336 336 337 338 338 338 336 335 335 335 337 337 338 338 338 338 339 339 339 339 339 339 339 338 338 336 336 336 335 335 335 334 333 333 333 333 333 333 334 332 331 332 332 332 332 332 331 330 329 328 327 326 326 326 327 327 326 327 327 327 328 329 330 330 331 332
336 336 335 334 334 334 336 336 337 339 338 337 338 340 340 340 340 338 337 336 337 338 338 338 338 337 335 335 336 337 338 338 338 338 338 338 338 339 339 339 339 339 338 337 336 336 335 334 334 333 334 333 333 332 332 331 331 331 329 330 331 331 332 332 329 328 327 326 325 323 321 320 320 321 323 323 324 324 325 326 327 328 328 329 330
336 336 335 335 334 334 335 335 336 338 337 337 338 340 340 340 340 338 337 337 337 338 338 338 339 337 336 336 336 338 338 338 338 338 338 338 338 338 338 339 339 338 338 336 336 335 334 333 333 332 332 331 331 330 330 329 329 328 328 330 331 331 331 329 328 326 324 323 322 320 318 316 315 316 317 319 321 322 323 324 325 326 326 326 326
336 335 335 335 335 335 336 335 335 336 336 337 338 339 339 339 339 338 337 337 337 338 338 338 338 337 336 336 338 338 338 339 339 338 337 338 338 338 339 338 338 337 336 336 335 334 333 332 332 331 330 330 329 328 328 327 325 326 328 330 330 330 330 328 327 324 323 322 320 319 317 314 312 311 312 314 317 320 320 320 321 321 322 322 321
336 335 335 335 335 335 335 335 335 335 336 337 338 339 338 338 338 337 337 337 337 338 338 338 337 336 337 338 339 339 338 339 339 338 338 338 338 338 338 337 336 336 335 334 333 333 332 331 331 330 329 328 327 326 325 323 322 323 327 330 330 328 328 328 326 323 321 320 319 317 316 314 310 307 308 311 314 317 318 316 316 316 316 317 318
336 335 335 335 335 335 335 335 335 335 336 336 337 338 338 338 337 337 337 337 337 337 337 337 337 337 338 338 339 338 338 338 338 338 338 338 338 337 336 335 335 334 334 333 332 332 331 330 330 328 328 327 325 323 321 319 321 322 324 329 330 327 325 325 324 322 321 319 317 315 312 311 308 304 305 310 311 312 315 312 309 310 310 312 314
336 336 336 335 335 335 335 335 335 334 335 335 336 336 337 337 337 336 337 336 336 337 337 337 338 338 338 338 338 338 338 338 338 338 338 337 336 335 334 334 333 333 333 332 331 330 330 328 327 326 325 324 323 320 317 319 324 325 325 329 329 328 326 324 322 321 319 318 315 310 309 309 307 304 305 309 310 309 310 309 304 303 304 305 307
336 336 336 335 335 335 335 335 335 336 336 336 335 335 336 336 336 336 336 336 336 336 337 337 338 338 337 337 337 338 338 338 337 337 336 336 335 334 333 333 332 332 331 330 329 328 328 326 325 325 324 322 320 318 316 320 324 325 327 329 328 329 327 324 322 320 318 317 312 306 307 308 306 304 305 308 310 307 306 307 304 301 300 301 302
337 337 336 336 336 336 336 335 336 337 336 336 335 335 335 335 335 336 336 335 335 336 337 337 337 337 337 337 337 337 337 336 336 335 334 334 334 333 333 332 331 330 329 328 327 326 325 324 322 322 324 322 320 318 317 318 321 323 326 326 326 328 328 325 323 320 318 317 310 302 304 307 306 305 306 307 309 306 304 304 303 301 300 300 300
337 337 337 336 336 336 337 336 337 337 335 335 335 335 335 334 335 336 336 336 335 336 337 336 336 336 336 336 336 336 336 335 334 334 334 334 333 332 332 331 330 329 328 327 325 324 323 321 319 318 321 322 320 318 317 317 317 320 323 324 324 325 323 321 321 321 320 316 307 299 301 305 305 305 305 306 306 305 304 302 302 302 301 301 301
337 337 337 337 337 337 337 337 337 336 335 335 335 335 335 334 335 335 335 335 334 334 334 333 333 333 334 334 334 335 334 334 333 333 332 332 331 330 329 329 328 328 326 325 323 321 318 316 316 315 316 319 320 319 317 316 315 316 318 320 322 322 318 317 318 320 320 316 308 301 301 304 305 305 305 306 305 304 304 303 302 303 302 301 302
337 337 337 337 337 337 337 337 336 335 335 335 335 335 334 334 334 334 334 333 331 331 331 331 331 331 332 332 332 333 333 332 332 331 330 330 329 328 327 326 326 325 323 322 319 316 314 313 313 313 314 315 318 319 317 315 314 313 314 314 315 316 315 314 313 313 316 316 310 305 303 304 304 305 304 305 305 303 303 303 303 303 303 302 302
337 337 337 337 337 337 337 336 335 334 335 335 335 334 333 333 334 334 334 333 331 331 330 331 331 330 330 330 330 330 331 330 330 329 328 327 327 326 325 324 324 322 320 318 315 312 312 312 312 312 312 312 313 316 316 315 314 313 312 311 310 309 309 309 310 310 312 313 310 306 304 305 305 305 304 305 305 303 303 303 303 303 303 302 302
337 337 337 337 337 337 336 334 334 333 334 335 335 333 333 334 335 335 334 333 332 331 329 329 329 328 328 329 329 329 329 329 328 327 326 325 324 323 322 322 321 319 316 314 312 311 311 311 311 310 310 309 310 311 312 312 312 311 310 310 310 307 305 306 307 310 310 309 309 307 304 305 305 304 304 304 304 303 303 303 303 302 302 302 302
337 337 337 337 337 336 334 332 333 333 333 334 333 333 335 334 334 334 333 332 330 328 327 327 327 326 327 328 328 328 327 326 325 323 323 322 322 321 320 320 318 315 313 312 311 311 311 310 309 309 308 307 307 307 307 308 308 307 308 308 308 307 306 305 306 307 308 307 306 306 305 306 305 303 302 303 303 302 302 302 302 302 302 302 302
336 337 337 336 336 334 333 333 333 334 334 333 333 334 335 334 334 333 331 330 328 326 325 325 325 325 326 326 326 326 324 323 321 320 320 319 319 319 318 317 315 313 312 311 311 311 310 309 308 307 306 306 304 303 303 304 304 303 305 306 306 307 307 306 305 306 306 306 306 306 306 305 305 304 302 302 302 302 301 301 302 302 302 301 301
336 337 336 336 335 333 333 333 333 334 335 334 333 334 335 334 334 333 331 330 328 327 325 323 324 324 324 324 324 323 321 320 319 318 318 318 317 317 316 314 312 312 312 311 310 310 309 308 307 305 304 302 301 300 300 301 302 302 303 304 304 305 305 305 305 305 305 306 306 306 305 304 305 304 302 302 303 302 301 301 301 301 301 301 301
Wind_Speed
24 26 22 24 24 24 24 23 23 21 20 19 21 22 21 21 21 21 21 21 20 20 20 20 20 20 20 20 21 20 20 19 18 18 18 17 16 16 15 15 14 14 13 13 12 12 12 12 12 12 12 12 12 12 12 13 14 12 11 15 16 13 11 9 9 10 10 11 11 10 9 9 8 8 7 6 5 4 4 4 6 9 8 6 6
28 27 22 24 25 24 24 23 22 20 19 20 21 21 20 21 20 20 20 20 20 20 20 20 20 20 20 20 20 20 19 19 18 18 17 17 15 15 15 14 13 13 13 12 12 11 11 11 11 12 11 12 12 12 12 13 14 14 13 14 15 12 10 10 9 10 10 9 9 8 7 8 8 7 6 5 5 4 3 3 5 8 7 5 6
29 26 22 25 25 24 24 23 22 18 18 19 20 21 20 20 20 20 20 20 20 20 20 20 20 20 20 20 19 19 19 18 17 17 16 16 15 15 14 13 12 11 11 11 10 9 9 9 10 11 11 11 11 11 11 12 13 14 14 13 12 11 10 9 8 8 8 7 6 6 6 6 6 5 5 6 5 4 4 3 4 7 5 5 5
26 24 22 26 26 25 25 24 23 18 17 18 20 20 20 20 20 20 20 20 20 20 21 20 20 20 19 19 19 18 18 18 17 16 15 15 14 14 14 13 12 10 10 10 9 9 8 8 9 10 10 10 11 11 10 11 11 12 13 13 12 11 10 8 7 6 6 5 4 5 5 6 6 5 5 5 5 4 4 4 3 4 3 4 4
24 23 22 25 24 25 25 24 24 20 18 18 19 21 20 20 20 20 20 20 20 20 20 20 20 19 19 18 18 18 18 17 16 15 14 14 13 13 13 13 12 10 10 11 10 9 8 8 10 10 10 10 11 10 10 10 9 10 11 11 11 11 10 8 6 5 4 3 3 4 4 5 5 5 6 5 5 5 4 4 3 3 2 2 3
24 24 22 24 23 25 25 25 24 21 20 18 20 21 20 20 20 20 20 20 20 20 20 20 19 19 18 18 17 17 16 16 15 14 13 13 13 13 13 13 11 10 11 11 10 10 10 11 11 11 11 11 11 10 9 9 9 9 9 9 9 9 9 8 7 6 4 3 3 3 4 4 4 5 5 5 5 5 5 4 4 3 3 2 3
24 23 22 23 23 25 25 25 23 22 20 19 20 20 21 20 20 20 20 20 20 20 20 19 19 18 18 17 16 16 15 15 15 14 14 13 13 13 13 12 11 10 11 11 11 12 12 12 12 12 11 11 10 10 9 9 8 7 8 8 8 8 7 7 7 7 6 5 4 4 4 4 4 4 4 4 5 6 6 5 5 4 4 3 4
22 22 21 21 22 25 25 24 22 21 20 20 21 20 20 20 20 20 20 20 20 20 20 19 18 18 17 16 15 15 15 14 14 14 13 13 12 12 13 13 11 10 10 11 12 12 12 12 12 12 11 11 10 10 9 8 7 7 8 8 7 7 7 7 7 8 8 6 5 4 4 4 5 4 3 3 4 5 5 5 5 6 7 5 4
21 21 21 20 21 25 25 23 22 20 19 20 21 20 20 20 20 20 20 20 20 20 19 19 18 17 17 16 14 14 15 13 13 12 12 12 12 12 12 11 9 9 10 11 12 12 12 12 12 11 11 11 10 10 9 8 7 7 7 7 7 7 7 6 6 7 6 5 5 4 4 4 4 4 3 3 4 5 6 5 5 5 8 8 5
21 20 20 19 21 25 24 22 22 20 19 20 21 20 19 19 20 20 20 20 20 20 19 18 17 17 16 15 15 14 13 12 11 10 10 10 11 11 10 9 9 10 11 12 11 12 12 12 11 10 11 11 10 9 8 7 6 6 7 6 7 7 8 7 6 5 3 3 5 5 6 6 4 3 4 6 6 6 7 6 4 4 7 9 6
20 20 19 18 21 25 23 21 20 20 19 19 20 20 19 19 19 19 20 20 20 19 18 18 17 17 16 15 15 13 12 11 10 9 9 8 9 9 9 9 11 11 11 12 11 11 11 11 11 11 10 10 9 8 7 6 7 8 8 7 6 7 7 8 7 5 4 4 5 5 5 7 4 2 5 6 6 6 7 6 5 5 8 9 6
20 20 19 18 21 24 23 21 19 19 19 19 20 19 19 19 19 19 19 19 19 19 18 17 17 16 15 15 14 13 11 10 9 9 8 7 7 7 8 10 12 11 11 12 11 10 11 11 11 10 9 9 8 7 6 7 8 9 10 9 7 6 6 7 7 5 5 5 5 6 4 4 3 3 5 5 5 6 5 4 4 5 7 7 5
21 20 19 19 21 23 22 21 19 19 19 20 20 19 19 19 19 19 19 18 18 18 18 17 16 15 15 14 13 12 10 10 8 8 7 7 8 8 9 11 12 11 12 12 11 10 10 10 10 9 8 7 7 6 6 7 9 10 11 10 9 6 5 5 5 5 5 5 5 5 4 4 2 3 5 4 4 4 4 4 4 5 6 6 4
21 20 20 20 20 23 23 21 20 19 20 21 21 20 19 19 19 19 18 18 18 17 17 16 16 15 14 13 12 11 10 9 8 8 8 7 7 9 10 12 12 11 12 12 11 10 10 10 9 8 7 6 6 5 6 6 8 9 10 11 10 8 6 4 4 3 3 4 4 4 3 3 2 4 4 3 4 4 4 5 5 6 6 6 4
21 21 21 19 20 23 23 22 21 20 21 22 21 21 20 20 20 19 18 18 17 17 17 16 15 13 13 12 11 11 10 9 8 8 8 8 7 9 11 12 12 12 12 12 11 11 10 9 8 8 6 5 5 4 4 5 6 6 8 9 9 9 8 5 3 2 1 1 2 2 2 1 2 3 3 2 3 3 4 5 5 5 5 6 5
20 22 20 19 20 22 23 22 22 21 21 22 22 21 21 21 20 19 19 18 17 17 16 15 14 12 11 11 10 9 9 8 8 8 8 8 8 9 12 12 12 12 12 12 12 11 10 9 8 7 6 5 4 3 3 3 3 3 5 7 7 8 8 6 3 2 1 2 2 2 2 2 3 3 2 2 3 4 4 4 5 4 5 5 5
20 20 20 20 21 22 22 21 21 20 21 22 22 22 21 20 20 19 18 17 17 16 16 14 12 11 10 9 8 8 7 7 6 6 7 7 8 10 12 13 12 12 12 12 12 11 10 9 8 7 5 4 3 2 2 1 1 1 2 4 5 6 8 7 4 2 2 3 3 4 4 4 4 4 4 2 3 4 4 5 5 5 5 5 5
20 19 20 21 22 21 21 20 20 20 20 21 21 21 20 20 19 18 17 17 16 16 15 13 11 10 9 9 8 8 8 7 6 6 6 7 8 10 13 13 12 12 12 12 12 12 11 9 8 6 5 4 3 3 2 1 0 1 1 3 5 6 7 7 5 3 3 4 4 5 6 6 6 5 5 4 4 5 5 6 6 6 6 6 6
18 19 20 21 22 20 20 21 20 21 21 21 21 20 20 20 19 17 17 17 16 15 14 12 10 9 10 9 9 10 10 9 8 7 7 7 8 11 13 13 13 12 12 12 11 11 11 9 8 6 5 4 3 3 2 1 1 2 2 3 5 6 7 7 5 5 5 5 5 6 7 7 7 7 7 6 6 6 6 6 6 6 7 7 6
17 19 20 21 21 19 20 20 21 22 21 21 21 20 20 20 19 17 17 17 16 14 12 10 9 10 10 10 11 10 10 10 10 9 9 8 9 10 12 13 13 12 12 11 11 10 10 9 7 5 4 2 2 1 1 1 2 2 2 3 5 7 8 8 7 6 6 6 6 6 7 7 8 9 9 9 8 8 7 7 7 7 7 8 7
17 18 19 20 20 20 21 20 21 22 21 21 21 20 20 20 18 17 18 17 15 13 11 10 9 9 10 11 11 10 10 11 11 11 10 9 9 10 11 13 13 12 11 10 10 9 8 7 5 4 3 1 0 1 1 1 2 2 2 3 5 7 9 9 9 8 7 7 8 7 8 8 8 10 10 11 11 10 10 9 8 8 8 8 8
19 19 19 20 20 21 21 19 20 21 21 21 20 19 20 19 18 18 17 15 14 13 11 10 9 9 11 12 11 10 11 11 12 12 11 10 9 9 10 12 12 11 10 10 8 7 6 5 5 4 3 2 2 2 2 2 3 2 2 3 5 7 9 10 9 9 8 8 9 9 10 9 9 10 10 12 13 13 12 11 11 10 9 9 9
21 21 20 20 20 21 21 20 20 21 21 20 19 19 19 18 17 17 16 14 13 12 11 10 9 10 12 12 11 11 11 10 11 12 12 12 11 10 10 11 11 10 9 8 7 6 6 5 5 4 3 3 4 4 4 5 5 4 4 4 5 7 8 9 9 9 8 9 10 11 11 11 10 10 11 12 13 14 14 14 13 11 10 10 10
22 21 20 20 19 20 22 20 20 22 21 19 19 19 18 18 17 16 15 14 12 12 13 11 11 12 12 12 11 11 11 10 10 10 11 12 13 12 10 10 10 9 8 7 6 6 5 5 4 3 4 4 5 5 6 6 7 6 6 6 6 8 9 9 9 8 8 8 9 11 11 11 11 11 11 12 14 15 16 15 14 12 12 12 12
21 21 20 20 20 20 21 20 21 22 21 19 19 19 17 17 16 15 15 13 12 14 14 11 12 12 12 11 11 11 11 10 10 9 9 10 11 12 11 10 10 9 8 7 6 6 5 4 4 3 4 4 5 6 7 7 7 8 8 8 8 9 9 9 9 9 9 9 9 10 11 11 11 11 11 12 14 15 16 16 15 13 12 13 13
20 21 20 20 20 21 20 20 21 21 20 18 18 17 17 16 14 14 15 12 13 15 13 11 11 11 11 10 11 11 10 8 9 9 9 8 8 9 10 10 10 10 8 7 6 5 4 4 3 3 3 4 5 6 7 7 8 8 8 8 9 9 9 9 9 9 10 10 10 10 10 10 11 11 10 11 12 15 16 15 15 15 13 13 14
20 21 21 21 20 20 20 20 21 20 19 18 17 16 16 15 14 14 14 12 13 15 13 11 11 10 10 10 11 10 8 7 8 9 9 8 7 8 8 9 9 8 7 6 5 4 4 4 4 4 3 4 4 5 6 7 8 8 8 8 8 8 8 9 9 9 10 11 11 11 10 10 10 9 9 9 10 12 15 15 16 15 14 14 14
18 20 21 21 20 20 20 20 20 20 19 18 17 16 16 15 14 14 13 12 14 15 13 12 11 10 9 10 10 10 9 8 8 9 9 9 8 8 7 7 6 5 5 4 4 3 4 4 4 4 4 4 4 5 6 6 7 8 8 8 8 8 9 9 9 9 9 9 10 10 10 9 9 9 9 9 9 10 12 14 16 15 15 14 14
18 20 21 21 19 21 22 21 20 19 19 18 17 17 16 15 15 13 12 12 13 13 13 13 11 10 9 9 9 9 10 9 8 8 9 9 8 8 7 6 5 5 4 3 2 3 3 3 4 4 4 4 4 5 6 6 7 7 8 8 8 9 9 10 10 10 9 9 8 8 8 8 8 7 7 7 8 9 10 11 13 15 16 15 15
17 19 20 20 20 21 23 22 20 20 19 17 17 17 16 15 15 13 12 12 10 12 13 12 11 10 8 9 9 9 9 8 7 7 7 7 6 6 5 5 4 3 2 2 2 2 3 3 3 3 3 3 4 5 7 6 7 7 8 8 8 9 10 10 10 10 9 9 8 7 7 6 5 5 5 5 6 7 8 9 10 13 14 14 14
17 18 19 20 21 21 22 21 20 20 19 17 16 17 15 15 14 13 12 11 11 12 12 10 11 9 8 8 9 10 8 7 6 5 5 5 4 5 4 3 3 2 1 1 1 2 2 2 2 2 2 3 4 7 8 7 6 7 7 7 8 9 10 11 11 10 9 8 7 7 6 5 4 4 4 5 5 6 6 7 7 10 12 12 12
18 19 19 19 19 20 20 20 20 20 19 16 16 17 15 14 14 12 11 11 12 12 10 10 11 8 8 8 8 8 7 6 5 4 4 4 4 4 4 3 3 2 0 1 1 1 1 1 1 2 3 5 6 7 8 7 6 7 7 7 9 9 10 11 10 9 8 8 7 6 6 5 4 5 5 5 6 7 7 7 7 7 9 11 12
18 18 18 18 19 19 19 20 20 20 19 17 16 17 15 13 12 11 11 12 12 12 11 11 10 8 8 7 7 7 6 5 4 4 4 4 4 4 4 4 3 2 1 2 2 1 1 2 3 3 4 6 6 7 8 7 7 7 8 9 9 10 9 8 8 8 7 6 7 7 7 6 6 7 7 7 7 7 8 8 7 7 8 9 10
17 17 18 19 18 18 19 19 20 20 19 18 17 16 13 12 12 12 13 14 13 12 12 10 9 8 8 7 6 5 5 5 5 5 5 4 4 4 4 4 3 1 1 2 2 2 2 2 3 3 5 6 7 8 8 7 8 8 8 10 9 8 8 7 7 7 8 9 11 11 12 11 10 10 10 10 9 8 8 8 8 8 8 9 10
17 18 18 19 18 18 18 19 20 20 19 18 16 14 12 12 13 13 14 14 12 12 12 10 9 8 7 6 5 4 4 4 5 6 6 4 3 3 4 3 3 1 1 2 2 2 2 3 3 4 5 6 6 7 8 9 9 8 9 9 7 6 6 8 9 11 12 13 14 15 15 15 14 13 12 12 12 11 10 11 12 11 10 10 10
17 17 18 18 18 19 19 19 22 21 18 18 15 12 11 12 13 13 15 14 12 11 11 10 8 8 7 6 5 4 4 4 5 6 6 5 3 3 3 4 3 1 1 1 2 2 4 4 5 5 6 7 7 8 10 10 10 8 8 6 5 6 8 10 12 14 14 15 16 17 17 17 16 15 14 13 13 12 12 12 12 10 9 9 9
16 16 17 18 18 19 18 18 22 22 18 18 16 14 13 12 12 13 14 14 12 11 11 10 7 7 7 6 5 5 4 5 5 5 5 5 4 4 4 4 3 2 1 2 2 2 4 5 6 7 7 8 9 11 12 12 11 8 5 4 5 8 10 12 13 14 15 16 17 18 18 18 17 16 15 14 13 12 13 12 11 10 10 9 9
14 15 16 17 17 17 16 17 20 21 19 19 18 17 15 13 12 13 14 13 12 12 11 10 9 8 8 7 6 5 5 6 5 5 5 5 5 5 5 4 3 3 2 2 1 1 3 5 7 8 9 10 11 13 13 13 11 7 3 4 7 10 11 12 13 14 15 17 17 18 18 19 19 18 16 15 13 11 12 14 13 13 13 12 11
14 14 15 15 16 16 16 17 19 20 20 19 18 18 18 14 13 14 13 12 12 12 11 10 10 10 9 7 6 6 6 6 5 5 5 6 6 6 6 6 5 4 2 2 1 2 4 6 7 9 11 11 12 12 13 14 10 6 2 5 9 12 12 12 13 14 16 17 17 18 18 18 19 19 16 15 15 12 11 15 15 15 15 14 13
14 15 15 14 15 16 16 16 18 20 19 19 18 18 19 15 12 12 10 10 11 11 12 12 12 12 10 8 7 7 7 6 6 6 6 6 7 7 7 7 5 4 2 0 1 3 4 7 8 10 10 11 12 12 14 14 9 6 3 6 8 10 13 14 14 14 15 16 17 18 18 18 18 19 17 16 16 15 13 16 18 17 17 16 14
16 16 15 15 16 17 17 17 19 20 19 19 19 18 17 14 12 11 11 12 13 13 14 14 13 12 10 9 8 8 8 7 7 6 6 7 8 8 8 6 5 3 1 2 3 4 6 7 9 10 10 10 12 14 16 12 7 7 4 5 6 6 8 12 14 14 14 15 17 19 19 18 18 18 16 16 17 17 16 17 20 20 20 19 18
17 17 16 17 18 18 19 20 21 20 18 19 18 17 17 16 15 14 14 14 13 13 15 14 13 12 10 9 9 9 9 8 7 7 7 8 8 7 6 4 3 3 4 4 4 5 7 8 8 8 8 10 11 15 18 12 7 7 4 1 3 5 5 7 11 13 13 14 17 21 19 18 19 17 16 16 15 18 18 18 20 22 22 21 21
17 18 18 18 20 21 21 22 21 18 17 17 16 17 18 18 17 16 15 15 13 13 15 14 12 11 10 10 11 11 9 8 9 9 7 6 5 5 4 3 3 4 5 4 4 6 7 8 8 7 5 7 10 14 18 15 11 7 2 1 2 1 4 4 8 10 11 13 18 23 20 17 19 17 16 16 15 17 19 19 21 23 24 23 22
15 16 19 19 20 21 23 23 20 17 17 16 17 19 19 18 18 18 18 17 15 15 14 12 12 13 14 14 13 12 9 9 10 8 5 4 4 3 2 2 2 3 4 3 4 6 8 8 8 7 5 5 9 13 16 17 15 10 4 1 1 1 2 3 8 5 8 13 19 24 21 18 19 17 17 17 16 17 18 21 22 23 25 25 23
14 15 17 19 20 22 23 22 19 19 20 20 20 20 20 21 20 19 18 17 15 15 14 14 15 17 17 17 15 13 10 10 9 6 5 5 3 2 2 2 2 2 2 3 5 6 7 8 7 7 8 7 7 10 14 17 18 16 10 4 1 1 2 7 8 2 6 10 15 22 21 18 18 17 16 17 18 18 17 20 22 21 23 24 23
14 14 17 19 20 21 22 21 19 21 23 23 21 19 21 24 24 22 20 18 14 13 15 17 18 19 19 18 16 13 11 10 9 6 4 3 2 2 2 3 3 3 4 5 6 8 9 10 9 10 11 9 8 8 11 13 15 17 15 11 8 5 4 6 5 2 4 7 11 17 18 16 15 15 15 14 16 18 17 18 19 19 20 21 21
14 15 17 20 21 22 21 19 20 23 24 22 19 21 23 25 25 24 23 21 17 14 16 20 20 20 20 19 16 14 11 9 7 4 3 2 2 3 3 3 4 5 6 7 9 11 12 12 12 12 12 11 11 11 10 9 10 13 13 12 12 11 9 6 3 2 2 4 8 13 16 14 13 13 13 13 14 16 16 16 17 17 18 18 19
14 15 18 19 21 21 17 19 23 25 25 20 18 22 25 25 24 22 19 20 21 19 21 23 21 20 20 18 15 13 9 6 4 3 3 3 3 4 4 4 6 7 8 11 13 13 14 14 13 13 13 13 14 13 12 10 9 9 9 9 10 10 12 11 7 4 2 2 5 9 14 15 13 15 15 14 16 18 18 19 18 18 18 18 19
16 17 18 17 18 17 18 23 24 25 23 19 19 23 25 25 24 20 17 17 19 22 24 24 22 20 19 16 13 11 8 5 4 4 4 4 5 5 6 6 8 10 12 13 15 14 14 14 14 13 14 14 14 14 14 14 12 11 9 9 8 7 9 12 11 8 4 3 4 6 10 11 12 16 17 16 17 19 20 20 18 18 18 18 18
18 19 18 18 17 18 21 22 23 24 23 22 24 26 25 25 23 20 19 18 20 23 24 24 23 20 18 16 12 10 8 6 5 5 5 6 7 7 8 9 11 13 14 15 15 15 14 14 14 14 14 14 15 15 16 16 15 16 13 10 10 9 7 9 11 10 6 4 4 4 8 8 6 10 12 11 12 14 16 18 16 16 18 18 18
19 20 20 19 18 20 22 21 22 25 25 23 24 26 27 26 22 20 21 23 24 26 25 24 23 20 18 16 13 10 9 7 7 8 8 9 9 10 10 12 13 14 15 15 15 15 15 14 14 14 14 15 16 17 19 19 18 18 16 13 13 12 10 9 10 10 9 6 5 5 8 8 5 6 8 7 7 9 12 15 15 15 17 18 18
Wind_Direction
170 169 163 171 175 175 166 161 161 155 156 158 159 150 144 143 141 141 138 137 135 134 132 131 130 130 129 127 126 124 121 119 118 117 116 114 112 111 110 107 102 99 99 100 100 101 105 105 101 99 100 106 111 108 97 86 75 76 99 108 100 99 108 112 104 94 93 99 94 89 90 88 82 76 75 75 73 71 69 66 73 67 64 64 55
166 167 163 172 174 174 167 162 162 156 158 159 159 150 144 144 142 142 139 138 136 136 134 134 134 132 130 127 126 124 122 121 120 119 117 114 112 110 109 106 101 100 98 96 96 97 103 109 109 105 101 106 112 107 96 86 77 76 92 109 109 103 110 111 98 95 98 100 97 99 95 85 80 72 62 54 49 54 68 72 83 75 66 63 53
161 163 161 171 173 174 168 163 162 157 157 158 156 148 145 145 143 142 139 139 138 137 137 136 135 133 130 128 127 125 124 123 121 119 117 114 111 108 105 101 99 97 95 94 93 93 97 106 113 111 106 104 105 105 97 87 82 83 89 101 109 106 109 113 103 100 100 96 96 98 84 67 69 63 47 37 32 34 44 42 75 81 70 72 60
157 160 162 170 173 174 168 164 162 157 156 155 153 148 148 147 143 142 140 141 140 138 137 137 135 133 131 130 128 125 123 121 120 118 116 113 110 106 100 95 95 91 87 89 86 85 86 97 113 117 113 105 107 109 99 90 84 84 89 93 101 105 110 115 110 110 108 106 104 87 69 61 59 47 42 42 34 32 37 32 44 71 69 76 65
156 160 162 168 172 174 168 165 164 158 155 154 152 150 150 147 144 144 143 143 141 138 137 137 135 133 131 129 127 124 122 121 121 119 116 112 107 102 98 96 98 92 81 84 85 86 85 91 107 118 119 113 118 117 102 92 83 78 84 89 94 98 102 105 103 102 106 121 118 84 64 67 65 49 52 48 38 37 36 41 38 44 56 57 44
157 160 161 166 170 172 169 166 165 160 155 154 153 152 151 147 146 146 144 143 140 138 137 137 134 133 131 129 128 125 123 123 122 119 116 111 105 101 100 100 100 94 82 81 82 86 88 92 101 111 120 122 123 116 101 89 80 75 77 84 88 91 92 91 89 84 84 91 90 74 59 63 70 60 58 46 31 27 24 41 47 43 43 35 41
158 159 162 167 170 172 170 167 165 160 156 155 154 153 152 149 149 147 143 142 140 138 135 135 133 133 131 130 130 128 125 123 122 120 117 111 107 104 101 101 100 98 92 88 84 87 90 94 100 105 115 124 121 107 96 85 76 72 71 76 79 84 87 86 83 80 80 76 75 74 68 63 74 73 58 49 32 28 39 56 56 56 49 37 65
158 159 163 167 169 173 170 165 164 160 156 155 156 155 153 152 150 145 143 142 140 136 135 135 134 134 132 130 130 128 125 124 124 122 118 113 111 109 107 107 106 100 98 100 96 95 96 99 104 107 113 118 112 101 94 84 74 69 67 69 70 75 77 80 81 80 79 72 80 86 80 74 79 86 66 56 37 37 55 60 48 54 49 28 57
159 160 165 165 169 174 169 164 164 159 156 156 156 156 155 154 150 145 143 141 139 137 137 138 136 136 134 131 130 128 126 124 123 120 119 117 116 116 116 115 109 95 93 100 104 105 105 107 109 110 112 111 107 101 91 79 67 62 61 65 72 78 77 80 79 79 75 66 80 89 89 88 85 81 68 65 48 46 56 58 47 39 35 23 40
160 162 165 164 169 173 168 164 163 158 157 157 157 157 156 155 149 146 143 141 141 139 139 139 139 139 138 137 134 130 127 123 118 117 121 122 122 123 123 120 110 100 97 102 109 112 113 115 113 111 111 110 107 98 88 74 58 51 55 68 82 86 82 81 80 82 83 77 83 86 82 83 93 78 60 66 59 48 47 49 46 23 15 13 23
160 162 164 164 169 171 166 164 162 159 157 158 158 157 157 155 150 147 145 144 143 141 141 142 143 143 140 138 133 128 126 123 120 120 123 127 128 126 124 120 112 108 105 106 112 116 119 121 118 116 113 111 106 98 89 70 54 51 55 69 86 90 83 78 82 95 95 90 86 86 73 68 87 77 50 54 50 38 35 34 27 10 357 358 4
159 161 163 163 168 169 164 163 161 159 159 158 159 158 157 155 151 148 146 145 144 143 144 146 147 145 139 136 132 131 132 132 130 128 127 128 129 126 123 118 114 109 104 106 111 117 123 125 123 122 119 114 108 100 87 66 55 55 55 61 75 87 82 73 79 92 89 92 83 82 83 74 96 63 49 44 37 32 28 25 9 351 345 347 349
158 159 162 161 167 169 163 163 162 161 160 159 159 159 157 156 152 149 147 146 145 147 147 147 148 144 139 138 138 137 140 142 139 137 137 137 131 128 127 120 116 111 104 105 111 122 130 132 131 128 124 119 110 101 85 66 58 55 56 58 64 75 79 69 71 78 77 83 72 70 79 86 100 57 58 55 37 29 17 8 353 344 347 350 345
157 158 159 159 167 170 164 164 165 164 161 159 161 160 159 157 153 150 150 151 151 151 150 148 147 144 141 141 143 145 147 149 150 147 147 153 143 134 134 126 119 113 107 106 113 127 135 137 135 132 128 119 108 102 86 71 65 59 57 57 58 63 67 62 57 64 59 61 57 54 59 67 72 49 62 62 28 17 8 1 354 348 347 352 347
157 156 158 160 166 169 168 167 167 167 162 161 162 161 160 158 155 154 155 156 156 154 150 148 147 145 143 144 149 154 156 156 161 162 154 156 152 142 139 132 124 116 109 107 113 125 133 136 135 132 129 119 107 99 83 69 73 68 60 54 55 57 58 56 41 38 26 16 24 25 28 22 19 29 52 50 8 1 359 351 351 350 348 349 343
157 155 158 161 164 167 171 171 170 167 163 163 164 163 162 160 158 159 159 159 157 153 148 147 147 147 147 151 156 158 160 160 166 167 158 153 152 149 144 137 128 119 112 108 111 120 130 134 134 132 128 122 109 97 77 58 70 73 58 47 50 56 54 56 41 7 325 284 290 309 290 298 345 1 14 20 347 345 344 337 339 341 345 341 336
157 157 160 163 164 167 171 173 173 169 164 164 166 165 164 162 161 162 162 159 156 150 147 148 148 150 149 152 153 151 153 156 163 164 158 152 153 153 148 141 131 122 115 111 110 115 125 131 133 131 126 121 107 93 74 51 71 80 35 32 43 52 47 45 35 2 318 296 283 280 270 281 316 329 336 343 320 325 327 324 325 329 336 332 328
159 162 163 164 166 168 171 172 172 169 165 166 167 167 166 163 163 164 162 158 155 149 148 150 151 151 147 145 143 139 139 141 149 153 152 151 154 155 151 144 134 126 120 115 112 113 119 125 128 125 120 116 108 97 80 48 177 209 294 350 26 37 31 28 17 353 338 329 294 278 273 281 300 307 314 316 301 304 307 309 310 316 320 320 321
164 166 166 167 167 169 171 172 172 168 166 167 168 169 169 166 164 162 160 158 154 150 150 151 151 148 143 140 135 131 130 131 135 138 144 146 150 155 155 149 139 132 125 119 115 113 114 116 118 117 116 113 109 100 82 30 297 236 272 321 3 15 11 10 359 342 339 335 306 284 283 287 293 293 297 300 291 289 294 297 297 302 303 307 312
168 169 169 170 170 171 172 174 173 169 167 168 169 171 171 167 164 160 159 158 155 152 151 151 149 145 141 137 134 130 123 121 120 120 126 134 144 155 159 153 144 137 129 122 118 114 110 108 108 105 106 108 109 98 60 3 316 272 278 309 345 360 355 351 345 338 330 324 322 307 301 294 287 287 289 289 286 282 284 289 290 291 293 297 299
171 173 174 172 174 176 174 175 173 170 169 169 170 171 171 168 163 160 159 159 157 154 151 150 146 142 137 133 132 125 117 113 109 107 111 116 128 148 157 154 148 140 132 126 120 112 105 101 99 95 95 90 53 356 357 356 341 310 305 317 343 354 350 342 336 333 326 320 322 320 319 311 294 288 283 284 283 278 274 279 283 283 288 293 293
175 176 177 176 177 178 176 175 173 172 170 170 171 171 171 168 162 160 159 159 157 155 152 148 143 138 133 129 127 119 112 106 98 98 101 103 108 127 147 154 152 144 136 130 120 108 102 100 99 96 87 59 26 14 17 21 20 8 342 336 348 352 348 343 335 328 322 318 316 318 322 320 312 299 288 284 281 278 274 274 278 279 281 288 288
177 177 178 178 179 180 179 177 174 173 171 172 172 171 172 168 164 161 160 159 158 157 151 145 140 136 132 127 122 117 112 105 96 92 94 94 95 106 127 148 153 148 139 130 120 111 108 106 99 89 72 43 26 18 13 14 12 9 358 346 341 340 341 342 342 334 324 317 316 317 317 316 314 308 298 290 284 280 276 271 269 272 275 285 286
178 177 176 178 179 180 181 179 176 173 172 172 173 173 174 171 166 163 162 160 159 156 150 143 139 135 132 127 120 116 111 109 106 97 94 91 91 95 107 130 145 149 141 129 122 118 111 99 84 70 57 33 19 9 2 360 355 352 348 340 331 325 327 332 336 337 331 324 320 317 313 310 309 308 303 295 288 282 277 271 265 267 271 281 288
175 174 175 179 181 181 181 180 177 175 174 172 174 176 175 172 168 165 164 161 158 153 149 144 138 136 131 126 120 117 114 111 109 101 97 93 91 93 100 113 126 135 133 124 120 114 104 86 69 54 37 19 9 359 353 352 349 347 342 336 329 322 322 323 322 324 323 321 321 318 314 311 308 307 304 298 292 285 282 274 269 275 271 274 286
171 175 176 179 181 181 181 180 178 177 176 173 173 176 176 173 169 167 165 162 159 154 151 148 142 139 132 124 119 119 115 109 105 100 98 97 96 97 101 110 118 124 122 115 110 102 90 72 58 45 25 11 5 357 353 350 348 346 342 337 332 328 326 324 320 317 313 310 311 313 315 314 310 307 304 300 296 290 286 273 270 278 271 270 277
173 178 178 179 181 181 181 180 179 178 178 175 173 176 176 175 172 170 168 164 163 159 154 152 148 143 133 125 121 119 111 102 100 99 101 103 106 107 108 114 118 122 120 110 103 91 70 63 57 49 35 23 14 4 358 352 347 345 344 340 336 334 330 328 325 321 315 309 308 309 312 315 314 313 309 306 301 296 291 274 270 278 276 274 276
171 177 179 180 181 182 181 179 179 178 177 176 175 177 178 179 177 173 172 169 167 163 156 154 152 145 135 128 123 116 104 98 97 98 101 105 111 114 114 117 117 117 121 113 94 76 61 63 58 49 40 26 16 5 1 355 349 345 344 340 336 334 328 326 324 321 320 314 312 312 311 315 318 319 318 317 312 309 302 280 273 283 285 281 285
171 175 178 180 182 183 182 179 179 178 178 178 177 180 181 181 178 177 177 172 170 165 159 157 153 144 135 130 126 118 107 101 99 100 102 104 109 110 110 115 114 116 125 116 79 68 63 59 54 48 35 23 17 6 2 357 350 344 340 338 334 331 326 324 322 321 323 320 319 319 317 317 321 328 330 331 330 328 318 294 281 286 289 290 295
173 173 177 180 181 183 183 181 180 178 179 179 180 183 183 181 178 179 177 173 174 168 163 160 154 146 138 132 128 125 115 106 102 101 103 105 111 111 111 116 117 124 122 95 54 51 59 60 57 48 34 24 14 1 358 352 347 342 337 335 331 328 325 322 321 322 325 325 325 327 326 324 327 336 340 339 338 334 328 312 297 293 296 302 301
174 176 181 180 179 181 182 183 181 179 180 179 182 186 184 180 176 179 176 174 178 171 167 163 155 152 147 138 131 128 122 114 102 92 95 97 110 118 123 128 125 138 112 54 13 31 58 71 64 40 21 10 1 352 350 348 344 342 339 338 334 331 327 325 325 326 329 331 331 330 329 328 328 333 331 329 327 325 329 326 316 307 306 309 306
178 181 181 179 178 180 181 183 182 180 183 183 184 187 183 177 176 179 175 174 178 174 172 166 159 159 156 147 139 136 129 121 102 85 88 92 114 128 129 133 132 142 142 327 325 29 76 68 23 5 353 349 351 345 345 348 346 346 346 344 341 337 336 333 334 335 336 339 340 342 344 343 342 344 339 336 334 334 337 337 338 331 321 318 315
182 183 180 179 180 181 181 183 182 182 186 187 185 185 181 176 176 178 175 175 177 176 175 169 163 163 160 155 149 144 136 126 115 102 98 104 122 132 127 128 133 147 277 302 306 1 41 7 348 346 341 344 347 345 349 355 352 352 352 349 347 344 346 349 351 354 2 15 24 29 31 29 27 24 17 6 357 356 356 355 355 348 332 324 323
181 183 181 181 182 181 181 182 184 187 190 190 185 184 181 178 181 180 178 178 177 179 180 176 170 166 164 162 158 153 143 130 127 123 116 115 120 129 129 132 141 158 294 304 316 345 2 338 340 347 342 348 353 350 355 360 356 357 354 350 351 352 2 21 33 43 55 61 60 60 58 54 53 51 46 37 28 24 24 21 20 15 5 354 349
182 184 181 179 181 180 180 182 187 189 193 192 186 185 182 181 184 182 183 184 181 183 185 185 179 174 173 174 170 162 149 138 138 138 131 127 123 132 139 143 148 148 312 314 321 330 327 319 339 357 352 355 0 356 359 360 355 355 351 350 359 16 40 60 69 73 75 72 68 65 63 59 57 57 55 50 43 39 39 40 36 32 31 29 23
185 183 180 179 180 180 181 185 190 189 191 192 185 183 182 182 184 184 189 188 184 185 188 192 187 181 181 179 176 166 160 155 151 148 141 139 138 146 155 156 156 159 281 299 301 310 326 332 341 357 2 2 2 358 358 355 351 351 351 359 30 57 71 80 80 79 76 73 68 63 59 56 53 51 51 50 45 38 37 42 38 29 29 35 35
187 183 181 181 180 181 184 188 191 190 191 192 187 184 185 183 182 186 192 191 189 190 194 198 192 188 186 182 180 175 176 168 161 160 152 148 147 157 167 165 166 177 205 221 241 303 339 343 343 356 4 3 0 356 354 350 346 348 358 35 79 84 88 88 83 76 72 68 63 58 53 48 45 43 41 40 38 34 30 34 33 25 23 24 21
188 185 185 184 182 181 183 189 192 193 194 192 188 187 186 185 186 191 194 194 196 198 202 204 196 193 192 189 186 180 173 165 164 164 157 154 153 162 172 167 166 171 180 190 202 352 359 349 349 356 357 0 1 355 350 343 339 345 20 97 99 97 94 88 80 72 66 61 55 51 46 40 37 36 37 34 33 31 27 30 30 27 26 23 20
188 187 184 182 181 179 181 187 190 192 192 190 185 185 187 187 187 190 191 196 202 204 206 204 197 196 196 196 191 180 168 157 156 153 150 155 159 164 166 159 154 152 162 168 107 37 9 353 353 354 353 356 357 355 347 340 341 352 53 120 108 100 94 84 76 68 60 55 50 44 40 36 31 31 35 36 33 29 24 26 27 24 22 20 19
190 187 182 180 180 178 178 182 187 189 188 186 181 181 185 183 178 178 179 187 193 195 195 192 191 194 196 195 186 176 163 150 148 147 149 155 158 159 156 150 144 140 141 109 38 27 10 355 351 350 354 354 353 357 353 349 356 9 70 128 118 102 91 80 71 64 57 52 46 39 35 33 31 30 36 40 36 33 27 22 23 20 15 12 10
189 186 182 183 183 180 179 181 188 189 186 186 182 178 178 173 169 169 167 173 178 176 177 179 184 188 190 184 175 168 154 143 142 144 151 153 153 152 147 140 130 114 64 29 15 13 8 359 353 350 357 3 3 6 5 5 13 16 48 115 129 122 97 77 64 59 57 53 45 37 35 35 32 33 38 41 37 34 30 21 21 21 16 12 8
189 188 184 186 189 187 186 186 189 190 188 185 181 176 173 171 171 170 168 171 171 168 170 175 180 183 183 174 163 155 144 136 139 146 149 148 147 145 136 121 99 66 42 26 11 9 7 2 2 359 2 16 23 16 17 26 20 7 10 67 120 138 128 85 60 55 56 54 44 34 36 38 35 36 39 40 37 31 28 22 21 21 19 16 12
191 191 190 190 193 192 193 193 189 188 187 181 174 169 168 174 177 173 170 167 164 169 172 174 177 177 172 161 150 143 140 141 146 146 141 141 144 141 126 100 64 38 31 17 8 11 11 9 9 14 15 28 39 27 27 35 20 357 319 330 45 127 153 102 46 50 56 54 42 31 36 41 35 38 39 40 37 27 25 26 25 21 19 18 15
189 187 192 194 195 196 197 194 188 183 179 169 159 154 158 174 179 173 172 167 166 170 169 166 169 168 161 153 147 141 142 147 146 142 143 156 160 156 143 111 52 9 4 8 21 23 22 22 18 25 38 47 51 39 37 42 35 20 350 326 350 335 119 25 355 36 62 47 35 27 35 42 35 38 40 39 35 27 25 28 28 24 22 21 17
185 181 188 193 197 199 199 195 183 174 169 158 152 154 164 177 173 162 160 158 155 157 156 157 163 161 154 151 148 144 146 149 148 151 164 173 172 172 160 119 84 21 29 43 46 45 42 46 44 47 57 63 67 57 50 50 50 48 40 37 7 358 42 346 337 50 67 46 34 26 37 44 35 38 41 39 34 29 27 27 26 23 20 19 17
185 184 189 196 200 201 201 195 172 159 157 153 157 167 175 176 168 157 154 148 143 148 153 159 163 157 150 149 146 143 147 150 148 151 156 161 156 145 136 111 94 77 75 70 68 71 70 68 66 65 65 68 75 71 60 53 53 55 56 61 64 57 22 337 334 18 49 61 44 29 36 41 38 41 42 39 34 30 28 24 21 19 15 14 13
183 186 192 199 201 201 200 182 155 148 152 158 170 177 173 169 167 165 162 156 152 158 164 165 164 155 147 144 140 136 138 138 133 139 146 144 139 128 120 107 94 87 84 86 87 86 82 78 74 73 73 72 74 72 62 53 53 51 55 64 68 66 51 26 9 337 2 61 40 28 31 33 38 41 38 36 31 26 25 21 17 15 12 10 8
179 185 193 195 196 198 182 150 144 146 151 165 181 179 171 168 170 168 164 164 165 165 164 161 156 148 140 136 134 131 130 132 134 145 151 135 132 124 115 108 100 98 98 96 95 91 87 84 80 77 76 72 74 76 68 59 57 50 50 59 64 63 55 48 40 18 357 0 19 26 22 25 37 39 36 35 29 26 22 19 16 13 10 7 6
183 190 191 186 184 177 147 136 150 152 151 168 180 177 177 176 176 169 159 162 164 160 157 153 148 142 137 134 134 134 136 144 140 133 136 130 129 126 117 113 108 107 105 101 98 94 92 88 81 76 75 73 73 77 76 68 64 60 54 56 58 57 53 47 39 36 36 7 13 16 7 17 37 40 38 34 29 27 22 17 14 12 9 6 3
189 188 178 173 167 150 139 147 159 161 165 177 176 176 182 182 180 173 162 159 157 154 151 148 146 143 138 136 138 138 136 136 128 125 134 134 132 128 121 118 114 111 107 104 101 98 93 86 81 77 75 77 76 78 81 77 73 70 64 59 56 50 47 41 33 34 38 17 4 3 3 9 31 38 31 24 23 23 19 15 10 8 7 4 1
184 176 167 164 155 146 156 165 165 169 178 181 176 176 181 184 184 177 169 164 160 155 151 147 147 146 141 137 137 137 132 128 128 133 137 137 133 127 124 121 116 114 111 107 104 98 92 86 83 80 77 80 83 84 84 82 77 73 68 64 61 55 52 45 33 30 30 19 359 1 9 7 23 33 13 4 13 16 15 14 10 7 5 2 360